Location: Andiroba
(19.8650°S, 43.9258°W)
Time: 01:28:50
(UTC+00:00)

FengYun 1-2 T - Pass Details

Date: 15 June 2024
Orbit: 846 x 879 km, 98.8° (Epoch: 24 July)

Event Time Altitude Azimuth Distance (km) Brightness Sun altitude
Rises 07:12:31 0° 18° (NNE) 3,446 7.8 -30.8°
Reaches altitude 10° 07:14:53 10° 19° (NNE) 2,518 7.0 -30.3°
Maximum altitude 07:20:29 75° 103° (ESE) 915 4.3 -29.0°
Enters shadow 07:21:19 63° 161° (SSE) 982 4.4 -28.8°
